{"data":{"norad_id":53497,"epoch":"2026-05-24T21:45:56.179008Z","epoch_age_seconds":79040,"freshness":"FRESH","line1":"1 53497U 22099AJ  26144.90690022  .00000218  00000+0  19146-4 0  9990","line2":"2 53497  97.4474 264.8139 0001045 136.6953 223.4357 15.05644797207442","mean_motion":15.05644797,"eccentricity":0.0001045,"inclination_deg":97.4474,"raan_deg":264.8139,"arg_perigee_deg":136.6953,"mean_anomaly_deg":223.4357,"bstar":1.9146e-5,"rev_number":20744,"period_min":95.640087414323,"perigee_km":548.80317287185,"apogee_km":550.25105467163,"semimajor_km":6927.6641137717,"source":"CELESTRAK","updated_at":"2026-05-25T13:38:17.436311Z"}}